Kivalina, AK

9:22 PM AKDT on May 25, 2017 (GMT -0800)
Kivalina

Weather History for PAVL - December, 2013

Change the Weather History Date:

Tuesday, December 24, 2013

  Actual Average (PAWN) Record (PAWN)
Temperature  
Mean Temperature -22 °F -  
Max Temperature -15 °F 0 °F 19 °F (2000)
Min Temperature -29 °F -9 °F -40 °F (2004)
Degree Days  
Heating Degree Days 87    
Moisture  
Dew Point -27 °F    
Average Humidity 77    
Maximum Humidity 84    
Minimum Humidity 69    
Precipitation  
Precipitation 0.00 in - - ()
Sea Level Pressure  
Sea Level Pressure 30.29 in    
Wind  
Wind Speed 6 mph (ENE)    
Max Wind Speed 9 mph    
Max Gust Speed -    
Visibility 8 miles    
Events      
Averages and records for this station are not official NWS values.
T = Trace of Precipitation, MM = Missing Value Source: NWS Daily Summary

Daily Weather History Graph

Daily Weather History Graph

Search for Another Location

Airport or City:

Trip Planner

Search our weather history database for the weather conditions in past years. The results will help you decide how hot, cold, wet, or windy it might be!

Date:

Astronomy

Dec. 24, 2013 Rise Set
Actual Time 1:25 PM AKST 2:30 PM AKST
Civil Twilight 11:14 AM AKST 4:41 PM AKST
Nautical Twilight 9:47 AM AKST 6:09 PM AKST
Astronomical Twilight 8:36 AM AKST 7:19 PM AKST
Moon 12:54 AM AKST (12/24) 1:09 PM AKST (12/24)
Length of Visible Light 5h 27m
Length of Day
1h 04m
Waning Gibbous, 57% of the Moon is Illuminated
Dec 24
Waning Gibbous
Dec 25
Last Quarter
Jan 1
New
Jan 7
First Quarter
Jan 15
Full

Hourly Weather History & Observations

Time (AKST) Temp. Windchill Dew Point Humidity Pressure Visibility Wind Dir Wind Speed Gust Speed Precip Events Conditions
12:53 AM -29.9 °F -49.0 °F - N/A% 30.27 in 10.0 mi ENE 6.9 mph - N/A   Scattered Clouds
1:01 AM -29.2 °F -48.1 °F - N/A% 30.26 in 10.0 mi ENE 6.9 mph - N/A   Mostly Cloudy
1:23 AM -29.2 °F -46.2 °F -34.6 °F 75% 30.27 in 9.0 mi NE 5.8 mph - N/A   Scattered Clouds
1:40 AM -29.2 °F -49.7 °F -34.6 °F 75% 30.27 in 10.0 mi NE 8.1 mph - N/A   Mostly Cloudy
1:53 AM -27.0 °F -43.7 °F -32.1 °F 77% 30.27 in 7.0 mi NE 5.8 mph - N/A   Overcast
2:53 AM -24.0 °F -40.0 °F -29.0 °F 77% 30.28 in 7.0 mi ENE 5.8 mph - N/A   Overcast
3:53 AM -18.9 °F -34.0 °F -24.0 °F 78% 30.28 in 7.0 mi East 5.8 mph - N/A   Overcast
4:53 AM -17.0 °F -33.4 °F -23.1 °F 74% 30.28 in 7.0 mi NE 6.9 mph - N/A   Overcast
5:28 AM -16.6 °F -29.3 °F -22.0 °F 76% 30.28 in 6.0 mi ENE 4.6 mph - N/A   Haze
5:53 AM -17.0 °F -31.7 °F -22.0 °F 78% 30.28 in 6.0 mi ENE 5.8 mph - N/A   Haze
6:53 AM -16.1 °F -30.6 °F -20.9 °F 79% 30.28 in 6.0 mi East 5.8 mph - N/A   Haze
7:53 AM -15.0 °F -29.3 °F -20.9 °F 75% 30.28 in 5.0 mi NE 5.8 mph - N/A   Haze
8:46 AM -16.6 °F -31.3 °F -20.2 °F 84% 30.29 in 7.0 mi ENE 5.8 mph - N/A   Overcast
8:53 AM -16.1 °F -30.6 °F -20.9 °F 79% 30.29 in 7.0 mi ENE 5.8 mph - N/A   Overcast
9:53 AM -17.0 °F -31.7 °F -22.0 °F 78% 30.30 in 8.0 mi ENE 5.8 mph - N/A   Overcast
10:53 AM -16.1 °F -32.3 °F -20.9 °F 79% 30.31 in 6.0 mi East 6.9 mph - N/A   Haze
11:53 AM -17.0 °F -34.8 °F -22.0 °F 78% 30.31 in 6.0 mi East 8.1 mph - N/A   Haze
12:53 PM -18.0 °F -33.0 °F -23.1 °F 78% 30.30 in 7.0 mi East 5.8 mph - N/A   Overcast
1:38 PM -20.2 °F -38.8 °F -25.6 °F 76% 30.31 in 7.0 mi East 8.1 mph - N/A   Scattered Clouds
1:53 PM -23.1 °F -43.7 °F -29.0 °F 74% 30.31 in 8.0 mi East 9.2 mph - N/A   Clear
2:53 PM -26.0 °F -42.4 °F -31.0 °F 77% 30.32 in 9.0 mi ENE 5.8 mph - N/A   Clear
3:53 PM -27.9 °F -42.5 °F -32.1 °F 81% 30.31 in 10.0 mi NE 4.6 mph - N/A   Clear
4:53 PM -27.0 °F -43.7 °F -33.0 °F 73% 30.30 in 9.0 mi East 5.8 mph - N/A   Clear
5:53 PM -29.0 °F -46.0 °F -35.0 °F 73% 30.30 in 9.0 mi East 5.8 mph - N/A   Clear
6:53 PM -27.9 °F -39.8 °F -34.1 °F 73% 30.29 in 8.0 mi East 3.5 mph - N/A   Clear
7:53 PM -26.0 °F -37.5 °F -33.0 °F 69% 30.29 in 10.0 mi ENE 3.5 mph - N/A   Clear
8:53 PM -24.0 °F - -29.0 °F 77% 30.29 in 8.0 mi Calm Calm - N/A   Clear
9:53 PM -27.0 °F -45.5 °F -32.1 °F 77% 30.28 in 10.0 mi North 6.9 mph - N/A   Clear
10:53 PM -16.1 °F - -22.0 °F 74% 30.27 in 9.0 mi Calm Calm - N/A   Clear
11:53 PM -18.0 °F - -23.1 °F 78% 30.26 in 8.0 mi Calm Calm - N/A   Clear